Time,TemperatureF,DewpointF,PressureIn,WindDirection,WindDirectionDegrees,WindSpeedMPH,WindSpeedGustMPH,Humidity,HourlyPrecipIn,Conditions,Clouds,dailyrainin,SolarRadiationWatts/m^2,SoftwareType,DateUTC
2013-01-21 00:00:00,23.9,13.9,30.11,WNW,302,1.0,1.0,65,0.00,,,0.00,0,HR-IXPWINDi_r2_v1.2.,2013-01-21 05:00:00,
2013-01-21 00:05:00,23.9,14.2,30.11,SW,217,2.0,4.0,66,0.00,,,0.00,0,HR-IXPWINDi_r2_v1.2.,2013-01-21 05:05:00,
2013-01-21 00:10:00,23.9,14.2,30.10,SW,217,0.0,4.0,66,0.00,,,0.00,0,HR-IXPWINDi_r2_v1.2.,2013-01-21 05:10:00,
2013-01-21 00:15:00,23.9,14.2,30.10,SW,217,0.0,3.0,66,0.00,,,0.00,0,HR-IXPWINDi_r2_v1.2.,2013-01-21 05:15:00,
2013-01-21 00:20:00,23.9,14.2,30.09,WNW,288,0.0,3.0,66,0.00,,,0.00,0,HR-IXPWINDi_r2_v1.2.,2013-01-21 05:20:00,
2013-01-21 00:25:00,23.9,14.2,30.09,WNW,288,0.0,3.0,66,0.00,,,0.00,0,HR-IXPWINDi_r2_v1.2.,2013-01-21 05:25:00,
2013-01-21 00:30:00,23.9,14.2,30.09,WNW,288,0.0,2.0,66,0.00,,,0.00,0,HR-IXPWINDi_r2_v1.2.,2013-01-21 05:30:00,
2013-01-21 00:36:00,23.9,14.2,30.09,WNW,288,0.0,2.0,66,0.00,,,0.00,0,HR-IXPWINDi_r2_v1.2.,2013-01-21 05:36:00,
2013-01-21 00:41:00,23.9,14.2,30.09,WNW,288,1.0,2.0,66,0.00,,,0.00,0,HR-IXPWINDi_r2_v1.2.,2013-01-21 05:41:00,
2013-01-21 00:46:00,23.9,14.2,30.09,WNW,288,1.0,3.0,66,0.00,,,0.00,0,HR-IXPWINDi_r2_v1.2.,2013-01-21 05:46:00,
2013-01-21 00:51:00,23.9,14.2,30.08,SW,230,2.0,3.0,66,0.00,,,0.00,0,HR-IXPWINDi_r2_v1.2.,2013-01-21 05:51:00,
2013-01-21 00:56:00,23.9,14.2,30.08,SW,230,1.0,3.0,66,0.00,,,0.00,0,HR-IXPWINDi_r2_v1.2.,2013-01-21 05:56:00,
2013-01-21 01:02:00,23.9,14.2,30.08,SW,230,0.0,3.0,66,0.00,,,0.00,0,HR-IXPWINDi_r2_v1.2.,2013-01-21 06:02:00,
2013-01-21 01:07:00,23.9,14.2,30.07,WNW,298,0.0,4.0,66,0.00,,,0.00,0,HR-IXPWINDi_r2_v1.2.,2013-01-21 06:07:00,
2013-01-21 01:12:00,23.9,14.2,30.07,WNW,298,0.0,4.0,66,0.00,,,0.00,0,HR-IXPWINDi_r2_v1.2.,2013-01-21 06:12:00,
2013-01-21 01:17:00,23.9,14.2,30.07,WNW,298,0.0,2.0,66,0.00,,,0.00,0,HR-IXPWINDi_r2_v1.2.,2013-01-21 06:17:00,
2013-01-21 01:22:00,23.9,14.2,30.07,WNW,298,1.0,2.0,66,0.00,,,0.00,0,HR-IXPWINDi_r2_v1.2.,2013-01-21 06:22:00,
2013-01-21 01:27:00,23.9,14.2,30.07,WNW,298,0.0,2.0,66,0.00,,,0.00,0,HR-IXPWINDi_r2_v1.2.,2013-01-21 06:27:00,
2013-01-21 01:32:00,23.9,14.2,30.07,WNW,298,1.0,2.0,66,0.00,,,0.00,0,HR-IXPWINDi_r2_v1.2.,2013-01-21 06:32:00,
2013-01-21 01:37:00,23.9,14.2,30.08,WNW,298,0.0,2.0,66,0.00,,,0.00,0,HR-IXPWINDi_r2_v1.2.,2013-01-21 06:37:00,
2013-01-21 01:42:00,23.9,14.6,30.08,WNW,298,0.0,2.0,67,0.00,,,0.00,0,HR-IXPWINDi_r2_v1.2.,2013-01-21 06:42:00,
2013-01-21 01:48:00,23.9,14.6,30.08,WNW,298,0.0,3.0,67,0.00,,,0.00,0,HR-IXPWINDi_r2_v1.2.,2013-01-21 06:48:00,
2013-01-21 01:53:00,23.9,14.6,30.09,WNW,298,0.0,3.0,67,0.00,,,0.00,0,HR-IXPWINDi_r2_v1.2.,2013-01-21 06:53:00,
2013-01-21 01:58:00,23.9,14.6,30.09,WNW,298,0.0,3.0,67,0.00,,,0.00,0,HR-IXPWINDi_r2_v1.2.,2013-01-21 06:58:00,
2013-01-21 02:03:00,23.9,14.6,30.09,WNW,298,0.0,3.0,67,0.00,,,0.00,0,HR-IXPWINDi_r2_v1.2.,2013-01-21 07:03:00,
2013-01-21 02:08:00,23.9,14.6,30.08,WNW,298,1.0,1.0,67,0.00,,,0.00,0,HR-IXPWINDi_r2_v1.2.,2013-01-21 07:08:00,
2013-01-21 02:13:00,23.9,14.6,30.08,WNW,298,0.0,2.0,67,0.00,,,0.00,0,HR-IXPWINDi_r2_v1.2.,2013-01-21 07:13:00,
2013-01-21 02:18:00,23.8,14.1,30.08,WNW,298,0.0,2.0,66,0.00,,,0.00,0,HR-IXPWINDi_r2_v1.2.,2013-01-21 07:18:00,
2013-01-21 02:24:00,23.8,14.5,30.08,WNW,298,0.0,1.0,67,0.00,,,0.00,0,HR-IXPWINDi_r2_v1.2.,2013-01-21 07:24:00,
2013-01-21 02:29:00,23.8,14.5,30.08,WNW,298,1.0,2.0,67,0.00,,,0.00,0,HR-IXPWINDi_r2_v1.2.,2013-01-21 07:29:00,
2013-01-21 02:34:00,23.8,14.1,30.08,WNW,298,0.0,2.0,66,0.00,,,0.00,0,HR-IXPWINDi_r2_v1.2.,2013-01-21 07:34:00,
2013-01-21 02:39:00,23.6,14.3,30.08,WNW,298,0.0,2.0,67,0.00,,,0.00,0,HR-IXPWINDi_r2_v1.2.,2013-01-21 07:39:00,
2013-01-21 02:44:00,23.6,14.3,30.08,WNW,298,0.0,2.0,67,0.00,,,0.00,0,HR-IXPWINDi_r2_v1.2.,2013-01-21 07:44:00,
2013-01-21 02:49:00,23.6,14.3,30.08,WNW,298,0.0,1.0,67,0.00,,,0.00,0,HR-IXPWINDi_r2_v1.2.,2013-01-21 07:49:00,
2013-01-21 02:55:00,23.6,14.3,30.08,WNW,298,0.0,0.0,67,0.00,,,0.00,0,HR-IXPWINDi_r2_v1.2.,2013-01-21 07:55:00,
2013-01-21 03:00:00,23.6,14.3,30.08,WNW,298,0.0,0.0,67,0.00,,,0.00,0,HR-IXPWINDi_r2_v1.2.,2013-01-21 08:00:00,
2013-01-21 03:05:00,23.5,14.5,30.07,WNW,298,0.0,0.0,68,0.00,,,0.00,0,HR-IXPWINDi_r2_v1.2.,2013-01-21 08:05:00,
2013-01-21 03:10:00,23.5,14.5,30.07,WNW,298,0.0,1.0,68,0.00,,,0.00,0,HR-IXPWINDi_r2_v1.2.,2013-01-21 08:10:00,
2013-01-21 03:15:00,23.5,14.5,30.07,WNW,298,0.0,1.0,68,0.00,,,0.00,0,HR-IXPWINDi_r2_v1.2.,2013-01-21 08:15:00,
2013-01-21 03:21:00,23.3,14.7,30.08,WNW,298,0.0,3.0,69,0.00,,,0.00,0,HR-IXPWINDi_r2_v1.2.,2013-01-21 08:21:00,
2013-01-21 03:26:00,23.3,14.7,30.08,WNW,298,0.0,3.0,69,0.00,,,0.00,0,HR-IXPWINDi_r2_v1.2.,2013-01-21 08:26:00,
2013-01-21 03:31:00,23.3,15.0,30.08,WNW,298,0.0,2.0,70,0.00,,,0.00,0,HR-IXPWINDi_r2_v1.2.,2013-01-21 08:31:00,
2013-01-21 03:37:00,23.2,14.9,30.07,WNW,298,0.0,2.0,70,0.00,,,0.00,0,HR-IXPWINDi_r2_v1.2.,2013-01-21 08:37:00,
2013-01-21 03:42:00,23.2,14.9,30.07,WNW,298,0.0,3.0,70,0.00,,,0.00,0,HR-IXPWINDi_r2_v1.2.,2013-01-21 08:42:00,
2013-01-21 03:47:00,23.2,15.2,30.07,WNW,298,1.0,3.0,71,0.00,,,0.00,0,HR-IXPWINDi_r2_v1.2.,2013-01-21 08:47:00,
2013-01-21 03:52:00,23.0,15.0,30.07,WNW,298,3.0,3.0,71,0.00,,,0.00,0,HR-IXPWINDi_r2_v1.2.,2013-01-21 08:52:00,
2013-01-21 03:57:00,23.0,15.0,30.07,SW,224,1.0,4.0,71,0.00,,,0.00,0,HR-IXPWINDi_r2_v1.2.,2013-01-21 08:57:00,
2013-01-21 04:03:00,23.0,15.4,30.07,SW,224,0.0,4.0,72,0.00,,,0.00,0,HR-IXPWINDi_r2_v1.2.,2013-01-21 09:03:00,
2013-01-21 04:08:00,22.9,15.3,30.07,SW,224,0.0,3.0,72,0.00,,,0.00,0,HR-IXPWINDi_r2_v1.2.,2013-01-21 09:08:00,
2013-01-21 04:13:00,22.9,15.3,30.07,SW,224,0.0,2.0,72,0.00,,,0.00,0,HR-IXPWINDi_r2_v1.2.,2013-01-21 09:13:00,
2013-01-21 04:18:00,22.9,15.3,30.07,SW,224,2.0,2.0,72,0.00,,,0.00,0,HR-IXPWINDi_r2_v1.2.,2013-01-21 09:18:00,
2013-01-21 04:24:00,22.9,15.3,30.05,SW,224,0.0,2.0,72,0.00,,,0.00,0,HR-IXPWINDi_r2_v1.2.,2013-01-21 09:24:00,
2013-01-21 04:29:00,22.9,15.6,30.05,SW,224,0.0,2.0,73,0.00,,,0.00,0,HR-IXPWINDi_r2_v1.2.,2013-01-21 09:29:00,
2013-01-21 04:34:00,22.9,15.6,30.05,SW,224,1.0,2.0,73,0.00,,,0.00,0,HR-IXPWINDi_r2_v1.2.,2013-01-21 09:34:00,
2013-01-21 04:39:00,22.9,15.6,30.05,SW,224,0.0,2.0,73,0.00,,,0.00,0,HR-IXPWINDi_r2_v1.2.,2013-01-21 09:39:00,
2013-01-21 04:44:00,22.9,15.6,30.05,SW,224,0.0,2.0,73,0.00,,,0.00,0,HR-IXPWINDi_r2_v1.2.,2013-01-21 09:44:00,
2013-01-21 04:49:00,22.9,15.6,30.05,SW,224,0.0,2.0,73,0.00,,,0.00,0,HR-IXPWINDi_r2_v1.2.,2013-01-21 09:49:00,
2013-01-21 04:55:00,22.9,15.6,30.04,SW,224,0.0,3.0,73,0.00,,,0.00,0,HR-IXPWINDi_r2_v1.2.,2013-01-21 09:55:00,
2013-01-21 05:00:00,22.9,15.6,30.04,SW,224,0.0,3.0,73,0.00,,,0.00,0,HR-IXPWINDi_r2_v1.2.,2013-01-21 10:00:00,
2013-01-21 05:05:00,22.9,15.6,30.04,SW,224,0.0,0.0,73,0.00,,,0.00,0,HR-IXPWINDi_r2_v1.2.,2013-01-21 10:05:00,
2013-01-21 05:10:00,22.9,15.6,30.04,SW,224,0.0,0.0,73,0.00,,,0.00,0,HR-IXPWINDi_r2_v1.2.,2013-01-21 10:10:00,
2013-01-21 05:15:00,22.9,15.6,30.04,SW,224,0.0,1.0,73,0.00,,,0.00,0,HR-IXPWINDi_r2_v1.2.,2013-01-21 10:15:00,
2013-01-21 05:21:00,22.9,15.6,30.04,SW,224,0.0,1.0,73,0.00,,,0.00,0,HR-IXPWINDi_r2_v1.2.,2013-01-21 10:21:00,
2013-01-21 05:26:00,22.9,15.6,30.04,SW,224,0.0,1.0,73,0.00,,,0.00,0,HR-IXPWINDi_r2_v1.2.,2013-01-21 10:26:00,
2013-01-21 05:31:00,22.9,15.6,30.04,SW,224,0.0,1.0,73,0.00,,,0.00,0,HR-IXPWINDi_r2_v1.2.,2013-01-21 10:31:00,
2013-01-21 05:37:00,22.9,15.6,30.04,SW,224,0.0,1.0,73,0.00,,,0.00,0,HR-IXPWINDi_r2_v1.2.,2013-01-21 10:37:00,
2013-01-21 05:42:00,22.9,15.6,30.04,SW,224,0.0,1.0,73,0.00,,,0.00,0,HR-IXPWINDi_r2_v1.2.,2013-01-21 10:42:00,
2013-01-21 05:47:00,22.9,15.6,30.04,SW,224,1.0,2.0,73,0.00,,,0.00,0,HR-IXPWINDi_r2_v1.2.,2013-01-21 10:47:00,
2013-01-21 05:52:00,22.9,15.6,30.04,SW,224,0.0,2.0,73,0.00,,,0.00,0,HR-IXPWINDi_r2_v1.2.,2013-01-21 10:52:00,
2013-01-21 05:57:00,22.9,15.6,30.04,SW,224,2.0,2.0,73,0.00,,,0.00,0,HR-IXPWINDi_r2_v1.2.,2013-01-21 10:57:00,
2013-01-21 06:02:00,22.9,15.6,30.04,SW,224,0.0,2.0,73,0.00,,,0.00,0,HR-IXPWINDi_r2_v1.2.,2013-01-21 11:02:00,
2013-01-21 06:08:00,23.0,15.7,30.04,SW,224,0.0,2.0,73,0.00,,,0.00,0,HR-IXPWINDi_r2_v1.2.,2013-01-21 11:08:00,
2013-01-21 06:13:00,23.0,15.7,30.04,SW,215,9.0,11.0,73,0.00,,,0.00,0,HR-IXPWINDi_r2_v1.2.,2013-01-21 11:13:00,
2013-01-21 06:18:00,23.0,15.4,30.04,SW,231,2.0,11.0,72,0.00,,,0.00,0,HR-IXPWINDi_r2_v1.2.,2013-01-21 11:18:00,
2013-01-21 06:23:00,23.0,15.0,30.04,SW,227,3.0,11.0,71,0.00,,,0.00,0,HR-IXPWINDi_r2_v1.2.,2013-01-21 11:23:00,
2013-01-21 06:29:00,23.2,14.6,30.04,SSW,209,6.0,7.0,69,0.00,,,0.00,0,HR-IXPWINDi_r2_v1.2.,2013-01-21 11:29:00,
2013-01-21 06:34:00,23.3,14.3,30.04,SW,224,4.0,7.0,68,0.00,,,0.00,0,HR-IXPWINDi_r2_v1.2.,2013-01-21 11:34:00,
2013-01-21 06:39:00,23.3,14.3,30.03,SW,228,1.0,6.0,68,0.00,,,0.00,0,HR-IXPWINDi_r2_v1.2.,2013-01-21 11:39:00,
2013-01-21 06:44:00,23.3,14.0,30.03,SSW,192,0.0,8.0,67,0.00,,,0.00,0,HR-IXPWINDi_r2_v1.2.,2013-01-21 11:44:00,
2013-01-21 06:49:00,23.5,14.2,30.03,WNW,288,1.0,8.0,67,0.00,,,0.00,0,HR-IXPWINDi_r2_v1.2.,2013-01-21 11:49:00,
2013-01-21 06:55:00,23.5,14.2,30.03,SW,219,4.0,6.0,67,0.00,,,0.00,0,HR-IXPWINDi_r2_v1.2.,2013-01-21 11:55:00,
2013-01-21 07:00:00,23.5,14.2,30.03,SW,234,2.0,6.0,67,0.00,,,0.00,0,HR-IXPWINDi_r2_v1.2.,2013-01-21 12:00:00,
2013-01-21 07:05:00,23.5,14.2,30.03,SW,234,0.0,4.0,67,0.00,,,0.00,0,HR-IXPWINDi_r2_v1.2.,2013-01-21 12:05:00,
2013-01-21 07:10:00,23.5,14.2,30.03,SSW,208,4.0,9.0,67,0.00,,,0.00,0,HR-IXPWINDi_r2_v1.2.,2013-01-21 12:10:00,
2013-01-21 07:15:00,23.5,14.2,30.03,WNW,293,2.0,9.0,67,0.00,,,0.00,0,HR-IXPWINDi_r2_v1.2.,2013-01-21 12:15:00,
2013-01-21 07:20:00,23.5,13.8,30.03,SSW,212,7.0,7.0,66,0.00,,,0.00,0,HR-IXPWINDi_r2_v1.2.,2013-01-21 12:20:00,
2013-01-21 07:26:00,23.6,13.9,30.03,SW,214,7.0,7.0,66,0.00,,,0.00,0,HR-IXPWINDi_r2_v1.2.,2013-01-21 12:26:00,
2013-01-21 07:31:00,23.6,13.9,30.03,SW,227,3.0,9.0,66,0.00,,,0.00,0,HR-IXPWINDi_r2_v1.2.,2013-01-21 12:31:00,
2013-01-21 07:36:00,23.6,13.9,30.03,WSW,244,7.0,9.0,66,0.00,,,0.00,0,HR-IXPWINDi_r2_v1.2.,2013-01-21 12:36:00,
2013-01-21 07:41:00,23.6,13.9,30.03,SW,220,1.0,8.0,66,0.00,,,0.00,0,HR-IXPWINDi_r2_v1.2.,2013-01-21 12:41:00,
2013-01-21 07:46:00,23.6,13.9,30.03,SW,227,5.0,8.0,66,0.00,,,0.00,0,HR-IXPWINDi_r2_v1.2.,2013-01-21 12:46:00,
2013-01-21 07:51:00,23.6,13.9,30.02,SSW,193,3.0,6.0,66,0.00,,,0.00,5,HR-IXPWINDi_r2_v1.2.,2013-01-21 12:51:00,
2013-01-21 07:56:00,23.6,13.9,30.02,South,190,6.0,6.0,66,0.00,,,0.00,9,HR-IXPWINDi_r2_v1.2.,2013-01-21 12:56:00,
2013-01-21 08:02:00,23.6,13.9,30.02,SW,229,3.0,7.0,66,0.00,,,0.00,11,HR-IXPWINDi_r2_v1.2.,2013-01-21 13:02:00,
2013-01-21 08:07:00,23.6,13.9,30.02,SSW,196,3.0,7.0,66,0.00,,,0.00,16,HR-IXPWINDi_r2_v1.2.,2013-01-21 13:07:00,
2013-01-21 08:12:00,23.6,13.9,30.02,SSW,193,3.0,7.0,66,0.00,,,0.00,19,HR-IXPWINDi_r2_v1.2.,2013-01-21 13:12:00,
2013-01-21 08:17:00,23.8,14.1,30.02,SSW,206,1.0,5.0,66,0.00,,,0.00,25,HR-IXPWINDi_r2_v1.2.,2013-01-21 13:17:00,
2013-01-21 08:22:00,23.8,14.1,30.02,WNW,282,1.0,5.0,66,0.00,,,0.00,26,HR-IXPWINDi_r2_v1.2.,2013-01-21 13:22:00,
2013-01-21 08:28:00,23.8,14.1,30.02,SSW,212,2.0,6.0,66,0.00,,,0.00,49,HR-IXPWINDi_r2_v1.2.,2013-01-21 13:28:00,
2013-01-21 08:33:00,23.9,14.6,30.02,South,189,4.0,7.0,67,0.00,,,0.00,49,HR-IXPWINDi_r2_v1.2.,2013-01-21 13:33:00,
2013-01-21 08:38:00,23.9,14.6,30.02,WSW,237,4.0,9.0,67,0.00,,,0.00,51,HR-IXPWINDi_r2_v1.2.,2013-01-21 13:38:00,
2013-01-21 08:43:00,24.1,14.8,30.02,SW,219,7.0,10.0,67,0.00,,,0.00,56,HR-IXPWINDi_r2_v1.2.,2013-01-21 13:43:00,
2013-01-21 08:49:00,24.1,14.8,30.02,SW,228,3.0,10.0,67,0.00,,,0.00,72,HR-IXPWINDi_r2_v1.2.,2013-01-21 13:49:00,
2013-01-21 08:54:00,24.2,14.5,30.01,SSW,201,7.0,13.0,66,0.00,,,0.00,105,HR-IXPWINDi_r2_v1.2.,2013-01-21 13:54:00,
2013-01-21 09:00:00,24.2,14.5,30.01,SSW,208,4.0,13.0,66,0.00,,,0.00,109,HR-IXPWINDi_r2_v1.2.,2013-01-21 14:00:00,
2013-01-21 09:06:00,24.4,14.4,30.01,South,176,6.0,12.0,65,0.00,,,0.00,105,HR-IXPWINDi_r2_v1.2.,2013-01-21 14:06:00,
2013-01-21 09:12:00,24.5,14.1,30.01,NW,305,4.0,13.0,64,0.00,,,0.00,93,HR-IXPWINDi_r2_v1.2.,2013-01-21 14:12:00,
2013-01-21 09:17:00,24.5,13.7,30.01,SW,223,4.0,13.0,63,0.00,,,0.00,91,HR-IXPWINDi_r2_v1.2.,2013-01-21 14:17:00,
2013-01-21 09:23:00,24.7,13.6,30.01,SSW,213,3.0,13.0,62,0.00,,,0.00,114,HR-IXPWINDi_r2_v1.2.,2013-01-21 14:23:00,
2013-01-21 09:28:00,24.7,13.6,30.01,SW,220,13.0,16.0,62,0.00,,,0.00,88,HR-IXPWINDi_r2_v1.2.,2013-01-21 14:28:00,
2013-01-21 09:33:00,24.8,13.7,30.01,SW,218,3.0,16.0,62,0.00,,,0.00,70,HR-IXPWINDi_r2_v1.2.,2013-01-21 14:33:00,
2013-01-21 09:38:00,24.8,13.7,30.01,SSW,213,8.0,16.0,62,0.00,,,0.00,60,HR-IXPWINDi_r2_v1.2.,2013-01-21 14:38:00,
2013-01-21 09:43:00,24.8,13.3,30.01,SSW,195,9.0,13.0,61,0.00,,,0.00,69,HR-IXPWINDi_r2_v1.2.,2013-01-21 14:43:00,
2013-01-21 09:49:00,24.8,12.9,30.01,SW,221,6.0,17.0,60,0.00,,,0.00,70,HR-IXPWINDi_r2_v1.2.,2013-01-21 14:49:00,
2013-01-21 09:54:00,24.8,12.9,30.00,SW,222,5.0,17.0,60,0.00,,,0.00,54,HR-IXPWINDi_r2_v1.2.,2013-01-21 14:54:00,
2013-01-21 09:59:00,25.0,13.5,30.00,SW,227,4.0,14.0,61,0.00,,,0.00,76,HR-IXPWINDi_r2_v1.2.,2013-01-21 14:59:00,
2013-01-21 10:04:00,25.0,13.5,30.00,SSW,195,0.0,14.0,61,0.00,,,0.00,105,HR-IXPWINDi_r2_v1.2.,2013-01-21 15:04:00,
2013-01-21 10:09:00,25.1,13.6,30.00,SW,222,6.0,14.0,61,0.00,,,0.00,100,HR-IXPWINDi_r2_v1.2.,2013-01-21 15:09:00,
2013-01-21 10:15:00,25.1,13.6,30.00,South,177,11.0,15.0,61,0.00,,,0.00,95,HR-IXPWINDi_r2_v1.2.,2013-01-21 15:15:00,
2013-01-21 10:20:00,25.1,13.2,29.99,SSW,197,9.0,18.0,60,0.00,,,0.00,84,HR-IXPWINDi_r2_v1.2.,2013-01-21 15:20:00,
2013-01-21 10:25:00,25.1,13.6,29.99,SW,220,5.0,18.0,61,0.00,,,0.00,120,HR-IXPWINDi_r2_v1.2.,2013-01-21 15:25:00,
2013-01-21 10:30:00,25.3,13.8,29.99,SW,224,3.0,14.0,61,0.00,,,0.00,132,HR-IXPWINDi_r2_v1.2.,2013-01-21 15:30:00,
2013-01-21 10:36:00,25.3,13.4,29.99,SW,233,12.0,16.0,60,0.00,,,0.00,188,HR-IXPWINDi_r2_v1.2.,2013-01-21 15:36:00,
2013-01-21 10:41:00,25.4,13.1,29.99,WNW,291,16.0,16.0,59,0.00,,,0.00,130,HR-IXPWINDi_r2_v1.2.,2013-01-21 15:41:00,
2013-01-21 10:46:00,25.6,12.9,29.99,SW,231,5.0,16.0,58,0.00,,,0.00,105,HR-IXPWINDi_r2_v1.2.,2013-01-21 15:46:00,
2013-01-21 10:52:00,25.6,12.9,29.98,SW,215,4.0,16.0,58,0.00,,,0.00,100,HR-IXPWINDi_r2_v1.2.,2013-01-21 15:52:00,
2013-01-21 10:57:00,25.6,12.9,29.98,SW,215,9.0,16.0,58,0.00,,,0.00,114,HR-IXPWINDi_r2_v1.2.,2013-01-21 15:57:00,
2013-01-21 11:02:00,25.7,13.0,29.98,SW,217,11.0,16.0,58,0.00,,,0.00,90,HR-IXPWINDi_r2_v1.2.,2013-01-21 16:02:00,
2013-01-21 11:08:00,25.7,13.0,29.97,WSW,248,3.0,14.0,58,0.00,,,0.00,91,HR-IXPWINDi_r2_v1.2.,2013-01-21 16:08:00,
2013-01-21 11:13:00,25.7,13.4,29.97,SW,232,13.0,20.0,59,0.00,,,0.00,123,HR-IXPWINDi_r2_v1.2.,2013-01-21 16:13:00,
2013-01-21 11:18:00,25.7,13.4,29.97,WNW,303,11.0,20.0,59,0.00,,,0.00,156,HR-IXPWINDi_r2_v1.2.,2013-01-21 16:18:00,
2013-01-21 11:23:00,25.7,13.8,29.96,SW,217,14.0,19.0,60,0.00,,,0.00,139,HR-IXPWINDi_r2_v1.2.,2013-01-21 16:23:00,
2013-01-21 11:28:00,25.7,13.4,29.96,SW,219,12.0,17.0,59,0.00,,,0.00,125,HR-IXPWINDi_r2_v1.2.,2013-01-21 16:28:00,
2013-01-21 11:33:00,25.7,13.8,29.96,SW,216,4.0,17.0,60,0.00,,,0.00,114,HR-IXPWINDi_r2_v1.2.,2013-01-21 16:33:00,
2013-01-21 11:38:00,25.7,13.8,29.95,SW,214,5.0,14.0,60,0.00,,,0.00,111,HR-IXPWINDi_r2_v1.2.,2013-01-21 16:38:00,
2013-01-21 11:43:00,25.7,14.1,29.95,SW,231,5.0,14.0,61,0.00,,,0.00,118,HR-IXPWINDi_r2_v1.2.,2013-01-21 16:43:00,
2013-01-21 11:48:00,25.8,14.2,29.95,SW,221,12.0,17.0,61,0.00,,,0.00,142,HR-IXPWINDi_r2_v1.2.,2013-01-21 16:48:00,
2013-01-21 11:54:00,25.7,14.5,29.93,WSW,248,11.0,17.0,62,0.00,,,0.00,169,HR-IXPWINDi_r2_v1.2.,2013-01-21 16:54:00,
2013-01-21 11:59:00,25.8,15.0,29.93,SSW,208,11.0,17.0,63,0.00,,,0.00,148,HR-IXPWINDi_r2_v1.2.,2013-01-21 16:59:00,
2013-01-21 12:04:00,26.0,15.2,29.93,SW,227,6.0,15.0,63,0.00,,,0.00,111,HR-IXPWINDi_r2_v1.2.,2013-01-21 17:04:00,
2013-01-21 12:09:00,26.0,15.2,29.93,SSW,212,11.0,15.0,63,0.00,,,0.00,95,HR-IXPWINDi_r2_v1.2.,2013-01-21 17:09:00,
2013-01-21 12:15:00,26.0,15.2,29.93,SSW,205,10.0,16.0,63,0.00,,,0.00,113,HR-IXPWINDi_r2_v1.2.,2013-01-21 17:15:00,
2013-01-21 12:20:00,26.0,15.5,29.92,SW,216,7.0,19.0,64,0.00,,,0.00,83,HR-IXPWINDi_r2_v1.2.,2013-01-21 17:20:00,
2013-01-21 12:25:00,25.8,15.3,29.92,SSW,213,11.0,19.0,64,0.00,,,0.00,81,HR-IXPWINDi_r2_v1.2.,2013-01-21 17:25:00,
2013-01-21 12:30:00,25.8,15.3,29.92,SW,220,15.0,16.0,64,0.00,,,0.00,84,HR-IXPWINDi_r2_v1.2.,2013-01-21 17:30:00,
2013-01-21 12:35:00,25.8,15.3,29.91,WSW,247,9.0,16.0,64,0.00,,,0.00,81,HR-IXPWINDi_r2_v1.2.,2013-01-21 17:35:00,
2013-01-21 12:41:00,25.8,15.3,29.91,SSW,208,10.0,13.0,64,0.00,,,0.00,81,HR-IXPWINDi_r2_v1.2.,2013-01-21 17:41:00,
2013-01-21 12:46:00,25.8,14.6,29.91,SSW,198,10.0,17.0,62,0.00,,,0.00,79,HR-IXPWINDi_r2_v1.2.,2013-01-21 17:46:00,
2013-01-21 12:51:00,25.8,14.2,29.91,SSW,213,12.0,17.0,61,0.00,,,0.00,79,HR-IXPWINDi_r2_v1.2.,2013-01-21 17:51:00,
2013-01-21 12:56:00,26.0,14.4,29.91,WNW,298,12.0,17.0,61,0.00,,,0.00,84,HR-IXPWINDi_r2_v1.2.,2013-01-21 17:56:00,
2013-01-21 13:02:00,26.0,14.0,29.91,SSW,208,7.0,13.0,60,0.00,,,0.00,62,HR-IXPWINDi_r2_v1.2.,2013-01-21 18:02:00,
2013-01-21 13:07:00,26.0,14.4,29.91,SSW,210,14.0,15.0,61,0.00,,,0.00,77,HR-IXPWINDi_r2_v1.2.,2013-01-21 18:07:00,
2013-01-21 13:12:00,26.0,14.4,29.91,SW,230,10.0,19.0,61,0.00,,,0.00,74,HR-IXPWINDi_r2_v1.2.,2013-01-21 18:12:00,
2013-01-21 13:17:00,26.0,14.4,29.91,SW,236,5.0,19.0,61,0.00,,,0.00,81,HR-IXPWINDi_r2_v1.2.,2013-01-21 18:17:00,
2013-01-21 13:22:00,25.8,14.2,29.91,WSW,240,11.0,18.0,61,0.00,,,0.00,70,HR-IXPWINDi_r2_v1.2.,2013-01-21 18:22:00,
2013-01-21 13:27:00,25.7,14.1,29.91,West,262,5.0,18.0,61,0.00,,,0.00,60,HR-IXPWINDi_r2_v1.2.,2013-01-21 18:27:00,
2013-01-21 13:33:00,25.7,14.1,29.91,NW,323,13.0,18.0,61,0.00,,,0.00,63,HR-IXPWINDi_r2_v1.2.,2013-01-21 18:33:00,
2013-01-21 13:38:00,25.7,14.1,29.91,SW,219,17.0,19.0,61,0.00,,,0.00,74,HR-IXPWINDi_r2_v1.2.,2013-01-21 18:38:00,
2013-01-21 13:43:00,25.6,14.4,29.91,WSW,243,6.0,23.0,62,0.00,,,0.00,128,HR-IXPWINDi_r2_v1.2.,2013-01-21 18:43:00,
2013-01-21 13:48:00,25.6,14.4,29.91,SW,219,9.0,23.0,62,0.00,,,0.00,137,HR-IXPWINDi_r2_v1.2.,2013-01-21 18:48:00,
2013-01-21 13:54:00,25.7,14.1,29.90,SW,227,6.0,17.0,61,0.00,,,0.00,185,HR-IXPWINDi_r2_v1.2.,2013-01-21 18:54:00,
2013-01-21 13:59:00,26.0,14.0,29.90,SW,215,3.0,17.0,60,0.00,,,0.00,232,HR-IXPWINDi_r2_v1.2.,2013-01-21 18:59:00,
2013-01-21 14:04:00,26.1,13.8,29.90,SW,222,16.0,21.0,59,0.00,,,0.00,257,HR-IXPWINDi_r2_v1.2.,2013-01-21 19:04:00,
2013-01-21 14:09:00,26.3,14.0,29.90,WNW,302,10.0,22.0,59,0.00,,,0.00,232,HR-IXPWINDi_r2_v1.2.,2013-01-21 19:09:00,
2013-01-21 14:14:00,26.4,14.0,29.90,SW,222,11.0,22.0,59,0.00,,,0.00,195,HR-IXPWINDi_r2_v1.2.,2013-01-21 19:14:00,
2013-01-21 14:20:00,26.4,14.0,29.90,SW,228,8.0,17.0,59,0.00,,,0.00,139,HR-IXPWINDi_r2_v1.2.,2013-01-21 19:20:00,
2013-01-21 14:25:00,26.4,14.4,29.91,SSW,193,11.0,21.0,60,0.00,,,0.00,216,HR-IXPWINDi_r2_v1.2.,2013-01-21 19:25:00,
2013-01-21 14:30:00,26.4,14.8,29.91,West,269,6.0,21.0,61,0.00,,,0.00,171,HR-IXPWINDi_r2_v1.2.,2013-01-21 19:30:00,
2013-01-21 14:35:00,26.3,15.1,29.91,WNW,297,7.0,18.0,62,0.00,,,0.00,132,HR-IXPWINDi_r2_v1.2.,2013-01-21 19:35:00,
2013-01-21 14:40:00,26.0,15.2,29.91,SW,229,12.0,18.0,63,0.00,,,0.00,127,HR-IXPWINDi_r2_v1.2.,2013-01-21 19:40:00,
2013-01-21 14:45:00,25.8,15.3,29.91,SW,222,5.0,16.0,64,0.00,,,0.00,40,HR-IXPWINDi_r2_v1.2.,2013-01-21 19:45:00,
2013-01-21 14:51:00,25.7,15.9,29.93,SW,219,20.0,29.0,66,0.00,,,0.00,76,HR-IXPWINDi_r2_v1.2.,2013-01-21 19:51:00,
2013-01-21 14:56:00,24.8,15.4,29.93,West,270,8.0,29.0,67,0.00,,,0.00,137,HR-IXPWINDi_r2_v1.2.,2013-01-21 19:56:00,
2013-01-21 15:01:00,24.7,15.3,29.93,SW,222,16.0,25.0,67,0.00,,,0.00,311,HR-IXPWINDi_r2_v1.2.,2013-01-21 20:01:00,
2013-01-21 15:06:00,24.8,15.1,29.93,NW,319,4.0,18.0,66,0.00,,,0.00,199,HR-IXPWINDi_r2_v1.2.,2013-01-21 20:06:00,
2013-01-21 15:11:00,25.1,15.0,29.93,WNW,298,4.0,16.0,65,0.00,,,0.00,202,HR-IXPWINDi_r2_v1.2.,2013-01-21 20:11:00,
2013-01-21 15:17:00,25.4,14.6,29.93,SW,216,13.0,16.0,63,0.00,,,0.00,246,HR-IXPWINDi_r2_v1.2.,2013-01-21 20:17:00,
2013-01-21 15:22:00,25.8,14.6,29.93,SW,219,11.0,27.0,62,0.00,,,0.00,172,HR-IXPWINDi_r2_v1.2.,2013-01-21 20:22:00,
2013-01-21 15:27:00,25.7,13.4,29.93,SW,226,5.0,27.0,59,0.00,,,0.00,167,HR-IXPWINDi_r2_v1.2.,2013-01-21 20:27:00,
2013-01-21 15:32:00,25.4,13.5,29.93,SW,219,19.0,28.0,60,0.00,,,0.00,93,HR-IXPWINDi_r2_v1.2.,2013-01-21 20:32:00,
2013-01-21 15:38:00,24.8,15.8,29.93,WSW,238,15.0,28.0,68,0.00,,,0.00,39,HR-IXPWINDi_r2_v1.2.,2013-01-21 20:38:00,
2013-01-21 15:43:00,23.3,16.6,29.93,NW,310,5.0,22.0,75,0.00,,,0.00,105,HR-IXPWINDi_r2_v1.2.,2013-01-21 20:43:00,
2013-01-21 15:48:00,22.5,16.4,29.93,NW,316,2.0,20.0,77,0.00,,,0.00,97,HR-IXPWINDi_r2_v1.2.,2013-01-21 20:48:00,
2013-01-21 15:53:00,22.2,16.7,29.95,SSW,203,9.0,14.0,79,0.00,,,0.00,185,HR-IXPWINDi_r2_v1.2.,2013-01-21 20:53:00,
2013-01-21 15:58:00,22.9,17.4,29.95,SW,225,4.0,14.0,79,0.00,,,0.00,232,HR-IXPWINDi_r2_v1.2.,2013-01-21 20:58:00,
2013-01-21 16:03:00,23.3,17.5,29.95,WSW,258,6.0,24.0,78,0.00,,,0.00,200,HR-IXPWINDi_r2_v1.2.,2013-01-21 21:03:00,
2013-01-21 16:09:00,23.5,16.1,29.95,SW,215,8.0,24.0,73,0.00,,,0.00,47,HR-IXPWINDi_r2_v1.2.,2013-01-21 21:09:00,
2013-01-21 16:14:00,23.6,15.3,29.95,WNW,291,12.0,26.0,70,0.00,,,0.00,93,HR-IXPWINDi_r2_v1.2.,2013-01-21 21:14:00,
2013-01-21 16:19:00,23.5,15.5,29.95,NNW,334,6.0,26.0,71,0.00,,,0.00,49,HR-IXPWINDi_r2_v1.2.,2013-01-21 21:19:00,
2013-01-21 16:24:00,22.9,15.6,29.95,NW,314,7.0,19.0,73,0.00,,,0.00,146,HR-IXPWINDi_r2_v1.2.,2013-01-21 21:24:00,
2013-01-21 16:29:00,22.5,15.2,29.95,SW,223,3.0,15.0,73,0.00,,,0.00,32,HR-IXPWINDi_r2_v1.2.,2013-01-21 21:29:00,
2013-01-21 16:34:00,22.2,15.2,29.95,WSW,239,5.0,15.0,74,0.00,,,0.00,23,HR-IXPWINDi_r2_v1.2.,2013-01-21 21:34:00,
2013-01-21 16:39:00,22.1,14.8,29.96,West,271,6.0,15.0,73,0.00,,,0.00,39,HR-IXPWINDi_r2_v1.2.,2013-01-21 21:39:00,
2013-01-21 16:44:00,22.1,14.5,29.96,NW,308,5.0,17.0,72,0.00,,,0.00,44,HR-IXPWINDi_r2_v1.2.,2013-01-21 21:44:00,
2013-01-21 16:50:00,22.2,14.3,29.97,SW,229,6.0,17.0,71,0.00,,,0.00,30,HR-IXPWINDi_r2_v1.2.,2013-01-21 21:50:00,
2013-01-21 16:55:00,22.2,13.9,29.97,West,271,6.0,14.0,70,0.00,,,0.00,23,HR-IXPWINDi_r2_v1.2.,2013-01-21 21:55:00,
2013-01-21 17:00:00,22.2,13.6,29.97,NW,309,1.0,16.0,69,0.00,,,0.00,47,HR-IXPWINDi_r2_v1.2.,2013-01-21 22:00:00,
2013-01-21 17:06:00,22.1,13.5,29.97,NW,317,11.0,16.0,69,0.00,,,0.00,11,HR-IXPWINDi_r2_v1.2.,2013-01-21 22:06:00,
2013-01-21 17:11:00,21.9,13.3,29.97,WNW,288,5.0,13.0,69,0.00,,,0.00,7,HR-IXPWINDi_r2_v1.2.,2013-01-21 22:11:00,
2013-01-21 17:16:00,21.8,13.6,29.97,NNW,333,3.0,11.0,70,0.00,,,0.00,7,HR-IXPWINDi_r2_v1.2.,2013-01-21 22:16:00,
2013-01-21 17:21:00,21.6,13.7,29.97,SW,217,6.0,14.0,71,0.00,,,0.00,0,HR-IXPWINDi_r2_v1.2.,2013-01-21 22:21:00,
2013-01-21 17:26:00,21.4,13.5,29.97,West,269,7.0,14.0,71,0.00,,,0.00,0,HR-IXPWINDi_r2_v1.2.,2013-01-21 22:26:00,
2013-01-21 17:32:00,21.3,13.4,29.97,SW,231,13.0,19.0,71,0.00,,,0.00,0,HR-IXPWINDi_r2_v1.2.,2013-01-21 22:32:00,
2013-01-21 17:37:00,21.1,13.2,29.98,WNW,301,11.0,19.0,71,0.00,,,0.00,0,HR-IXPWINDi_r2_v1.2.,2013-01-21 22:37:00,
2013-01-21 17:42:00,21.1,13.2,29.98,NW,304,4.0,17.0,71,0.00,,,0.00,0,HR-IXPWINDi_r2_v1.2.,2013-01-21 22:42:00,
2013-01-21 17:47:00,21.1,13.5,29.98,WNW,299,4.0,14.0,72,0.00,,,0.00,0,HR-IXPWINDi_r2_v1.2.,2013-01-21 22:47:00,
2013-01-21 17:52:00,21.0,13.4,29.98,NNW,328,2.0,12.0,72,0.00,,,0.00,0,HR-IXPWINDi_r2_v1.2.,2013-01-21 22:52:00,
2013-01-21 17:58:00,20.6,13.0,29.98,WNW,286,15.0,19.0,72,0.00,,,0.00,0,HR-IXPWINDi_r2_v1.2.,2013-01-21 22:58:00,
2013-01-21 18:03:00,20.3,12.8,29.98,SW,220,3.0,19.0,72,0.00,,,0.00,0,HR-IXPWINDi_r2_v1.2.,2013-01-21 23:03:00,
2013-01-21 18:08:00,20.2,13.0,29.99,WSW,255,3.0,16.0,73,0.00,,,0.00,0,HR-IXPWINDi_r2_v1.2.,2013-01-21 23:08:00,
2013-01-21 18:13:00,19.9,12.4,29.99,WNW,302,2.0,20.0,72,0.00,,,0.00,0,HR-IXPWINDi_r2_v1.2.,2013-01-21 23:13:00,
2013-01-21 18:18:00,19.7,12.5,29.99,WNW,287,5.0,20.0,73,0.00,,,0.00,0,HR-IXPWINDi_r2_v1.2.,2013-01-21 23:18:00,
2013-01-21 18:24:00,19.5,12.3,30.00,WNW,298,4.0,14.0,73,0.00,,,0.00,0,HR-IXPWINDi_r2_v1.2.,2013-01-21 23:24:00,
2013-01-21 18:29:00,19.4,12.2,30.00,West,267,2.0,14.0,73,0.00,,,0.00,0,HR-IXPWINDi_r2_v1.2.,2013-01-21 23:29:00,
2013-01-21 18:34:00,19.4,12.2,30.00,NW,321,3.0,11.0,73,0.00,,,0.00,0,HR-IXPWINDi_r2_v1.2.,2013-01-21 23:34:00,
2013-01-21 18:39:00,19.4,12.2,30.00,NW,315,10.0,10.0,73,0.00,,,0.00,0,HR-IXPWINDi_r2_v1.2.,2013-01-21 23:39:00,
2013-01-21 18:45:00,19.4,12.5,30.00,WNW,283,0.0,11.0,74,0.00,,,0.00,0,HR-IXPWINDi_r2_v1.2.,2013-01-21 23:45:00,
2013-01-21 18:50:00,19.2,12.6,30.00,WNW,288,1.0,11.0,75,0.00,,,0.00,0,HR-IXPWINDi_r2_v1.2.,2013-01-21 23:50:00,
2013-01-21 18:55:00,18.9,12.6,30.00,NW,314,8.0,14.0,76,0.00,,,0.00,0,HR-IXPWINDi_r2_v1.2.,2013-01-21 23:55:00,
2013-01-21 19:00:00,18.8,12.2,30.00,WNW,288,8.0,17.0,75,0.00,,,0.00,0,HR-IXPWINDi_r2_v1.2.,2013-01-22 00:00:00,
2013-01-21 19:06:00,18.8,11.6,30.00,West,272,5.0,19.0,73,0.00,,,0.00,0,HR-IXPWINDi_r2_v1.2.,2013-01-22 00:06:00,
2013-01-21 19:11:00,18.8,11.3,30.00,NW,315,7.0,19.0,72,0.00,,,0.00,0,HR-IXPWINDi_r2_v1.2.,2013-01-22 00:11:00,
2013-01-21 19:16:00,18.8,11.3,30.00,WNW,291,5.0,16.0,72,0.00,,,0.00,0,HR-IXPWINDi_r2_v1.2.,2013-01-22 00:16:00,
2013-01-21 19:21:00,18.6,10.8,30.01,West,278,4.0,15.0,71,0.00,,,0.00,0,HR-IXPWINDi_r2_v1.2.,2013-01-22 00:21:00,
2013-01-21 19:26:00,18.6,10.5,30.01,WNW,301,2.0,14.0,70,0.00,,,0.00,0,HR-IXPWINDi_r2_v1.2.,2013-01-22 00:26:00,
2013-01-21 19:32:00,18.4,10.0,30.01,NW,324,4.0,13.0,69,0.00,,,0.00,0,HR-IXPWINDi_r2_v1.2.,2013-01-22 00:32:00,
2013-01-21 19:37:00,18.3,9.6,30.02,NW,307,8.0,15.0,68,0.00,,,0.00,0,HR-IXPWINDi_r2_v1.2.,2013-01-22 00:37:00,
2013-01-21 19:42:00,18.1,9.0,30.02,West,273,7.0,17.0,67,0.00,,,0.00,0,HR-IXPWINDi_r2_v1.2.,2013-01-22 00:42:00,
2013-01-21 19:47:00,18.0,9.0,30.02,NW,307,4.0,17.0,67,0.00,,,0.00,0,HR-IXPWINDi_r2_v1.2.,2013-01-22 00:47:00,
2013-01-21 19:53:00,17.8,8.8,30.02,WNW,298,7.0,16.0,67,0.00,,,0.00,0,HR-IXPWINDi_r2_v1.2.,2013-01-22 00:53:00,
2013-01-21 19:58:00,17.7,8.3,30.02,WNW,291,7.0,19.0,66,0.00,,,0.00,0,HR-IXPWINDi_r2_v1.2.,2013-01-22 00:58:00,
2013-01-21 20:03:00,17.7,8.0,30.02,WNW,300,5.0,19.0,65,0.00,,,0.00,0,HR-IXPWINDi_r2_v1.2.,2013-01-22 01:03:00,
2013-01-21 20:08:00,17.5,7.1,30.03,West,270,4.0,19.0,63,0.00,,,0.00,0,HR-IXPWINDi_r2_v1.2.,2013-01-22 01:08:00,
2013-01-21 20:13:00,17.3,6.6,30.03,SSW,212,7.0,18.0,62,0.00,,,0.00,0,HR-IXPWINDi_r2_v1.2.,2013-01-22 01:13:00,
2013-01-21 20:19:00,17.3,6.6,30.03,WNW,294,4.0,15.0,62,0.00,,,0.00,0,HR-IXPWINDi_r2_v1.2.,2013-01-22 01:19:00,
2013-01-21 20:24:00,17.2,6.5,30.03,NNW,338,4.0,20.0,62,0.00,,,0.00,0,HR-IXPWINDi_r2_v1.2.,2013-01-22 01:24:00,
2013-01-21 20:29:00,17.0,5.9,30.03,West,281,9.0,20.0,61,0.00,,,0.00,0,HR-IXPWINDi_r2_v1.2.,2013-01-22 01:29:00,
2013-01-21 20:34:00,16.5,4.7,30.03,NW,304,4.0,16.0,59,0.00,,,0.00,0,HR-IXPWINDi_r2_v1.2.,2013-01-22 01:34:00,
2013-01-21 20:40:00,16.4,4.3,30.04,SW,233,4.0,16.0,58,0.00,,,0.00,0,HR-IXPWINDi_r2_v1.2.,2013-01-22 01:40:00,
2013-01-21 20:45:00,16.1,3.6,30.04,WNW,291,12.0,14.0,57,0.00,,,0.00,0,HR-IXPWINDi_r2_v1.2.,2013-01-22 01:45:00,
2013-01-21 20:50:00,15.9,2.7,30.04,NW,324,5.0,16.0,55,0.00,,,0.00,0,HR-IXPWINDi_r2_v1.2.,2013-01-22 01:50:00,
2013-01-21 20:55:00,15.7,1.7,30.04,SW,234,7.0,16.0,53,0.00,,,0.00,0,HR-IXPWINDi_r2_v1.2.,2013-01-22 01:55:00,
2013-01-21 21:00:00,15.6,1.2,30.04,WNW,287,7.0,14.0,52,0.00,,,0.00,0,HR-IXPWINDi_r2_v1.2.,2013-01-22 02:00:00,
2013-01-21 21:06:00,15.4,0.6,30.04,North,4,1.0,14.0,51,0.00,,,0.00,0,HR-IXPWINDi_r2_v1.2.,2013-01-22 02:06:00,
2013-01-21 21:11:00,15.2,0.4,30.04,West,272,0.0,13.0,51,0.00,,,0.00,0,HR-IXPWINDi_r2_v1.2.,2013-01-22 02:11:00,
2013-01-21 21:16:00,14.9,-0.1,30.04,NW,319,5.0,13.0,50,0.00,,,0.00,0,HR-IXPWINDi_r2_v1.2.,2013-01-22 02:16:00,
2013-01-21 21:21:00,14.9,-0.1,30.05,West,266,5.0,13.0,50,0.00,,,0.00,0,HR-IXPWINDi_r2_v1.2.,2013-01-22 02:21:00,
2013-01-21 21:27:00,14.8,-0.6,30.05,SW,216,0.0,8.0,49,0.00,,,0.00,0,HR-IXPWINDi_r2_v1.2.,2013-01-22 02:27:00,
2013-01-21 21:32:00,14.6,-0.4,30.05,NW,306,10.0,11.0,50,0.00,,,0.00,0,HR-IXPWINDi_r2_v1.2.,2013-01-22 02:32:00,
2013-01-21 21:37:00,14.4,-1.0,30.05,West,277,4.0,12.0,49,0.00,,,0.00,0,HR-IXPWINDi_r2_v1.2.,2013-01-22 02:37:00,
2013-01-21 21:42:00,14.4,-1.0,30.05,West,269,5.0,12.0,49,0.00,,,0.00,0,HR-IXPWINDi_r2_v1.2.,2013-01-22 02:42:00,
2013-01-21 21:47:00,14.3,-0.6,30.05,WNW,302,5.0,10.0,50,0.00,,,0.00,0,HR-IXPWINDi_r2_v1.2.,2013-01-22 02:47:00,
2013-01-21 21:52:00,14.3,-0.6,30.06,WNW,286,5.0,10.0,50,0.00,,,0.00,0,HR-IXPWINDi_r2_v1.2.,2013-01-22 02:52:00,
2013-01-21 21:58:00,14.1,-0.4,30.06,SW,236,11.0,12.0,51,0.00,,,0.00,0,HR-IXPWINDi_r2_v1.2.,2013-01-22 02:58:00,
2013-01-21 22:03:00,14.1,-0.4,30.06,WNW,288,2.0,13.0,51,0.00,,,0.00,0,HR-IXPWINDi_r2_v1.2.,2013-01-22 03:03:00,
2013-01-21 22:08:00,14.1,0.0,30.06,West,281,11.0,13.0,52,0.00,,,0.00,0,HR-IXPWINDi_r2_v1.2.,2013-01-22 03:08:00,
2013-01-21 22:13:00,14.0,-0.1,30.06,WNW,297,2.0,13.0,52,0.00,,,0.00,0,HR-IXPWINDi_r2_v1.2.,2013-01-22 03:13:00,
2013-01-21 22:19:00,14.0,0.1,30.06,SW,226,5.0,11.0,53,0.00,,,0.00,0,HR-IXPWINDi_r2_v1.2.,2013-01-22 03:19:00,
2013-01-21 22:24:00,14.0,0.9,30.06,SW,231,3.0,16.0,55,0.00,,,0.00,0,HR-IXPWINDi_r2_v1.2.,2013-01-22 03:24:00,
2013-01-21 22:29:00,14.1,2.1,30.06,SW,223,2.0,16.0,58,0.00,,,0.00,0,HR-IXPWINDi_r2_v1.2.,2013-01-22 03:29:00,
2013-01-21 22:34:00,14.1,2.5,30.06,SSW,212,6.0,16.0,59,0.00,,,0.00,0,HR-IXPWINDi_r2_v1.2.,2013-01-22 03:34:00,
2013-01-21 22:39:00,14.0,3.1,30.06,SW,229,10.0,17.0,61,0.00,,,0.00,0,HR-IXPWINDi_r2_v1.2.,2013-01-22 03:39:00,
2013-01-21 22:45:00,14.0,3.5,30.06,WNW,301,2.0,17.0,62,0.00,,,0.00,0,HR-IXPWINDi_r2_v1.2.,2013-01-22 03:45:00,
2013-01-21 22:50:00,14.0,3.8,30.06,WNW,288,4.0,17.0,63,0.00,,,0.00,0,HR-IXPWINDi_r2_v1.2.,2013-01-22 03:50:00,
2013-01-21 22:55:00,14.0,4.1,30.06,NW,309,5.0,17.0,64,0.00,,,0.00,0,HR-IXPWINDi_r2_v1.2.,2013-01-22 03:55:00,
2013-01-21 23:00:00,14.0,4.8,30.06,West,263,3.0,15.0,66,0.00,,,0.00,0,HR-IXPWINDi_r2_v1.2.,2013-01-22 04:00:00,
2013-01-21 23:06:00,14.0,5.8,30.06,WNW,301,2.0,15.0,69,0.00,,,0.00,0,HR-IXPWINDi_r2_v1.2.,2013-01-22 04:06:00,
2013-01-21 23:11:00,13.6,6.0,30.06,NNW,339,9.0,15.0,71,0.00,,,0.00,0,HR-IXPWINDi_r2_v1.2.,2013-01-22 04:11:00,
2013-01-21 23:16:00,13.3,6.0,30.06,WNW,300,10.0,15.0,72,0.00,,,0.00,0,HR-IXPWINDi_r2_v1.2.,2013-01-22 04:16:00,
2013-01-21 23:21:00,12.9,6.0,30.06,WNW,283,3.0,14.0,73,0.00,,,0.00,0,HR-IXPWINDi_r2_v1.2.,2013-01-22 04:21:00,
2013-01-21 23:26:00,12.6,5.7,30.06,North,349,6.0,16.0,73,0.00,,,0.00,0,HR-IXPWINDi_r2_v1.2.,2013-01-22 04:26:00,
2013-01-21 23:32:00,12.4,5.2,30.06,SW,222,4.0,16.0,72,0.00,,,0.00,0,HR-IXPWINDi_r2_v1.2.,2013-01-22 04:32:00,
2013-01-21 23:37:00,12.3,5.1,30.07,WSW,246,5.0,15.0,72,0.00,,,0.00,0,HR-IXPWINDi_r2_v1.2.,2013-01-22 04:37:00,
2013-01-21 23:42:00,12.3,4.8,30.07,SSW,211,19.0,19.0,71,0.00,,,0.00,0,HR-IXPWINDi_r2_v1.2.,2013-01-22 04:42:00,
2013-01-21 23:47:00,12.3,4.5,30.07,SW,224,6.0,19.0,70,0.00,,,0.00,0,HR-IXPWINDi_r2_v1.2.,2013-01-22 04:47:00,
2013-01-21 23:52:00,12.3,3.8,30.07,WNW,294,6.0,19.0,68,0.00,,,0.00,0,HR-IXPWINDi_r2_v1.2.,2013-01-22 04:52:00,
2013-01-21 23:57:00,12.3,3.2,30.07,SW,223,3.0,16.0,66,0.00,,,0.00,0,HR-IXPWINDi_r2_v1.2.,2013-01-22 04:57:00,